Regional Weather Roundup
Issued by NWS

Home | Current Version | Previous Version | Text Only | Print | Product List | Glossary Off
Versions: 1 2 3 4 5 6 7 8 9 10 11 12 13 14 15 16 17 18 19 20 21 22 23 24 25 26 27 28 29 30 31 32 33 34 35 36 37 38 39 40 41 42 43 44 45 46 47 48 49 50

000
ASUS43 KMKX 030000
RWRWI

WISCONSIN REGIONAL WEATHER ROUNDUP
NATIONAL WEATHER SERVICE MILWAUKEE/SULLIVAN WI
700 PM CDT TUE SEP 02 2014

NOTE: "FAIR" INDICATES FEW OR NO CLOUDS BELOW 12,000 FEET WITH NO
SIGNIFICANT WEATHER AND/OR OBSTRUCTIONS TO VISIBILITY.

WIZ001-002-006>008-014>016-023>028-030100-
NORTHWEST WISCONSIN

CITY           SKY/WX    TMP DP  RH WIND       PRES   REMARKS
SUPERIOR ARPT  CLOUDY    73  55  52 SW5       29.81R
ASHLAND        PTCLDY    67  54  63 SW6       29.84R
6HR MIN TEMP:  67; 6HR MAX TEMP:  76;

HAYWARD        CLEAR     71  52  50 SW8       29.86S
6HR MIN TEMP:  71; 6HR MAX TEMP:  74;

SIREN          CLEAR     73  51  47 SW7       29.86S
RICE LAKE      CLEAR     71  52  49 SW5       29.89S
6HR MIN TEMP:  71; 6HR MAX TEMP:  75;

LADYSMITH      CLEAR     71  53  53 SW7       29.90S
EAU CLAIRE     NOT AVBL
MENOMONIE      CLEAR     75  52  44 SW7       29.88F
NEW RICHMOND   CLEAR     72  52  48 SW5       29.88S
OSCEOLA        CLEAR     74  54  49 SW6       29.89F
$$

WIZ003>005-009-010-017-018-030100-
NORTH CENTRAL WISCONSIN

CITY           SKY/WX    TMP DP  RH WIND       PRES   REMARKS
WOODRUFF       CLEAR     72  51  48 SW5       29.88S
RHINELANDER    CLEAR     67  54  63 SW6       29.89S
6HR MIN TEMP:  67; 6HR MAX TEMP:  75;

EAGLE RIVER    CLEAR     67  49  50 SW5       29.87S
LAND O LAKES   CLEAR     69  50  50 SW5       29.87S
PHILLIPS       CLEAR     69  54  57 SW6       29.87S
TOMAHAWK       CLEAR     69  53  57 CALM      29.89S
MEDFORD        CLEAR     69  54  59 W5        29.90S
MERRILL        CLEAR     71  55  57 W5        29.88F
$$

WIZ029-030-035-036-043>047-030100-
CENTRAL WISCONSIN

CITY           SKY/WX    TMP DP  RH WIND       PRES   REMARKS
WAUSAU         CLEAR     71  55  56 W6        29.87S
6HR MIN TEMP:  71; 6HR MAX TEMP:  76;

MOSINEE        PTCLDY    70  57  64 W6        29.90S
MARSHFIELD     CLEAR     70  57  63 W6        29.89S
6HR MIN TEMP:  70; 6HR MAX TEMP:  77;

STEVENS POINT  CLEAR     70  58  65 W3        29.89S
WAUPACA        CLEAR     74  59  58 NW3       29.88S
WAUTOMA        NOT AVBL
WISC RAPIDS    CLEAR     72  56  57 W6        29.90S
6HR MIN TEMP:  72; 6HR MAX TEMP:  78;

CAMP DOUGLAS   NOT AVBL
$$

WIZ011>013-019>022-031-037>040-048>050-030100-
NORTHEAST WISCONSIN

CITY           SKY/WX    TMP DP  RH WIND       PRES   REMARKS
ANTIGO         CLEAR     69  54  60 W6        29.90S
STURGEON BAY   PTCLDY    70  59  68 SW6       29.86F
6HR MIN TEMP:  64; 6HR MAX TEMP:  73;

GREEN BAY      CLEAR     71  61  70 W6        29.86F
6HR MIN TEMP:  70; 6HR MAX TEMP:  77;

MANITOWOC      NOT AVBL
APPLETON       PTCLDY    72  55  56 W7        29.88F
CLINTONVILLE   CLEAR     72  55  56 W5        29.87S
OSHKOSH        CLEAR     73  59  61 CALM      29.87F
6HR MIN TEMP:  73; 6HR MAX TEMP:  77; 6HR PCP: TRACE;

$$

WIZ032>034-041-042-053>061-030100-
SOUTHWEST WISCONSIN

CITY           SKY/WX    TMP DP  RH WIND       PRES   REMARKS
LA CROSSE      CLEAR     77  59  53 W5        29.88S
6HR MIN TEMP:  77; 6HR MAX TEMP:  81;

SPARTA         CLEAR     75  58  54 NW5       29.90S
VIROQUA        FAIR      73  59  62 SW5       29.92S
BOSCOBEL       CLEAR     76  58  53 SW3       29.90F
6HR MIN TEMP:  76; 6HR MAX TEMP:  81;

PRAIRIE DU CHI CLEAR     76  55  47 W5        29.89F
PLATTEVILLE    FAIR      73  59  61 CALM      29.92F
$$

WIZ056-057-062-063-064-067-068-030100-
SOUTH CENTRAL WISCONSIN

CITY           SKY/WX    TMP DP  RH WIND       PRES   REMARKS
BARABOO/DELLS  CLEAR     74  53  47 W6        29.90S
LONE ROCK      NOT AVBL
WATERTOWN      CLEAR     74  57  54 W3        29.88F
MADISON        PTCLDY    74  55  51 CALM      29.89F
6HR MIN TEMP:  74; 6HR MAX TEMP:  79;

MIDDLETON      FAIR      74  56  53 W6        29.90S
MONROE         CLEAR     73  57  56 NW5       29.91S
JANESVILLE     CLEAR     75  55  50 NW6       29.89F
$$

WIZ051-052-058>065-066-070>072-030100-
SOUTHEAST WISCONSIN

CITY           SKY/WX    TMP DP  RH WIND       PRES   REMARKS
MILWAUKEE      PTCLDY    76  56  49 NW7       29.88F
6HR MIN TEMP:  76; 6HR MAX TEMP:  80;

WAUKESHA       CLEAR     72  57  60 W7        29.90F
MILWAUKEE/TIMM CLEAR     73  55  53 NW7       29.88F
RACINE         CLEAR     75  58  55 W5        29.90S
6HR MIN TEMP:  75; 6HR MAX TEMP:  81;

BURLINGTON     CLEAR     71  59  64 W3        29.89F
KENOSHA        CLEAR     73  62  68 W5        29.89S
6HR MIN TEMP:  73; 6HR MAX TEMP:  80;

FOND DU LAC    CLEAR     73  57  57 W5        29.88F
6HR MIN TEMP:  73; 6HR MAX TEMP:  78;

SHEBOYGAN      CLEAR     72  59  63 W3        29.87F
6HR MIN TEMP:  69; 6HR MAX TEMP:  78; 6HR PCP:  0.06;

WEST BEND      CLEAR     72  55  56 W6        29.88F
JUNEAU         CLEAR     73  58  59 W5        29.90S
$$

LSZ147-162-030100-
LAKE SUPERIOR

STATION/POSITION TIME  TEMP    WIND        PRES    WAVE
                       AIR SEA DIR/SP/G            HT/PER
                 (UTC) (F)     (DEG/KT/KT) (MB)    (FT/S)
W MID LAKE BUOY  2250   64 58  230/ 14/ 16 1008.6R   2/ 3
DEVILS ISLAND    2300   62     330/ 13/ 18 1009.9R
PORT WING        2320          330/ 27     1010.8R
SAXON HARBOR     2300   74     210/  4/  7 1009.8S
$$

LMZ867-665-643>646-030100-
LAKE MICHIGAN

STATION/POSITION TIME  TEMP    WIND        PRES    WAVE
                       AIR SEA DIR/SP/G            HT/PER
                 (UTC) (F)     (DEG/KT/KT) (MB)    (FT/S)
N MID LAKE BUOY  2250   67 65  210/ 14/ 16 1010.0F   2/ 3
NORTHPORT PIER   2300   75     230/  2/  8 1010.2S
SISTER BAY       2341   73     220/  9/ 10   N/A
KEWAUNEE LAKESHO 2300   75     270/  4/  7 1010.4R
SHEBOYGAN LAKESH 2300   69 48  170/  9/ 10 1011.9F
ATWATER BUOY     2300   71     110/  8/  8 1013.0F
MILWAUKEE LAKESH 2300   77     300/  7/ 10   N/A
S MID LAKE BUOY  2250   73 73  180/  4/  4 1012.3F   0
KENOSHA   LAKESH 2300   77     290/  9/ 11 1011.2F
$$

TC  - TEMPERATURE IN CELSIUS
VSB - VISIBILITY IN STATUTE MILES
WCI - WIND CHILL INDEX
HX  - HEAT INDEX



USA.gov is the U.S. government's official web portal to all federal, state and local government web resources and services.